Home > Weather > Rouyn-Noranda > Past weeks

Flag for Canada Weather for the Past 2 Weeks in Rouyn-Noranda, Quebec, Canada

Now
48 °F

Partly cloudy.


Feels Like: 45 °F
Forecast: 43 / 59 °F
Wind: 7 mph from South

Location: Rouyn Airport

Current Time: May 4, 2016 at 1:04:58 AM

Latest Report: May 4, 2016 at 12:00 AM


Visibility: 15 mi

Pressure: 29.69 "Hg

Humidity: 54%

Dew Point: 32 °F

Location of Rouyn-NorandaLocation

Historic Weather in Rouyn-Noranda — Graph

°F

Rouyn-Noranda Temperature Yesterday

Maximum temperature yesterday: 64 °F (at 3:00 PM)
Minimum temperature yesterday: 36 °F (at 6:00 AM)
Average temperature yesterday: 51 °F

High & Low Weather Summary for the Past Weeks

 TemperatureHumidityPressure
High64 °F (May 3, 3:00 PM)100% (Apr 19, 1:00 AM)30.37 "Hg (Apr 19, 1:00 AM)
Low9 °F (Apr 27, 6:00 AM)23% (Apr 23, 5:00 PM)29.68 "Hg (May 3, 6:00 PM)
Average37 °F56%30.14 "Hg
* Reported Apr 18 11:00 PM — May 3 11:00 PM, Rouyn-Noranda, Weather by CustomWeather, © 2016

Note: Actual official high and low records may vary slightly from our data, if they occured in-between our weather recording intervals... More about our weather records

Advertising

Rouyn-Noranda Weather History for the Previous 24 Hours

Scroll right to see more
 ConditionsComfort  
Time TempWeatherWind HumidityBarometerVisibility
11:00 PM
Tue, May 3
48 °FOvercast.3 mph54%29.69 "Hg15 mi
10:00 PM48 °FPassing clouds.8 mph58%29.71 "Hg15 mi
9:00 PM54 °FCloudy.5 mph47%29.71 "Hg15 mi
8:00 PM57 °FSprinkles. Mostly cloudy.21 mph39%29.70 "Hg15 mi
7:00 PM59 °FMore clouds than sun.9 mph31%29.69 "Hg15 mi
6:00 PM61 °FBroken clouds.14 mph29%29.68 "Hg15 mi
5:00 PM63 °FBroken clouds.12 mph27%29.68 "Hg15 mi
4:00 PM64 °FBroken clouds.15 mph26%29.69 "Hg15 mi
3:00 PM64 °FBroken clouds.14 mph30%29.71 "Hg15 mi
2:00 PM61 °FBroken clouds.16 mph31%29.73 "Hg15 mi
1:00 PM63 °FBroken clouds.14 mph27%29.74 "Hg15 mi
12:00 PM61 °FScattered clouds.14 mph34%29.76 "Hg15 mi
11:00 AM59 °FScattered clouds.10 mph36%29.79 "Hg15 mi
10:00 AM57 °FScattered clouds.12 mph36%29.80 "Hg15 mi
9:00 AM54 °FScattered clouds.8 mph41%29.83 "Hg15 mi
8:00 AM46 °FPartly sunny.7 mph53%29.84 "Hg15 mi
7:00 AM39 °FPartly sunny.2 mph65%29.85 "Hg15 mi
6:00 AM36 °FPassing clouds.No wind70%29.85 "Hg15 mi
5:00 AM37 °FPassing clouds.2 mph65%29.86 "Hg15 mi
4:00 AM37 °FPassing clouds.No wind75%29.86 "Hg15 mi
3:00 AM39 °FPassing clouds.5 mph56%29.88 "Hg15 mi
2:00 AM39 °FOvercast.2 mph70%29.89 "Hg15 mi
1:00 AM39 °FOvercast.2 mph61%29.90 "Hg15 mi
Weather by CustomWeather, © 2016

See weather overviewHow to use our weather pages